| time (UTC) | temp F | wind direction | speed MPH | gust MPH | rain 1hr in | rain 24hr in | rain mn in | humidity % | barometer mb |
| 20260502195839 | 50 | 0.0 | 0.0 | 0.00 | 0.00 | 0.00 | 82 | 1003.8 | |
| 20260502195344 | 50 | 0.0 | 0.0 | 0.00 | 0.00 | 0.00 | 82 | 1003.7 | |
| 20260502194840 | 50 | 0.0 | 0.0 | 0.00 | 0.00 | 0.00 | 82 | 1004.0 | |
| 20260502194339 | 50 | 0.0 | 0.0 | 0.00 | 0.00 | 0.00 | 81 | 1004.1 | |
| 20260502193839 | 50 | 0.0 | 0.0 | 0.00 | 0.00 | 0.00 | 81 | 1004.2 | |
| 20260502193339 | 51 | 0.0 | 0.0 | 0.00 | 0.00 | 0.00 | 81 | 1004.5 | |
| 20260502192838 | 51 | 0.0 | 0.0 | 0.00 | 0.00 | 0.00 | 80 | 1004.5 | |
| 20260502192341 | 51 | 0.0 | 0.0 | 0.00 | 0.00 | 0.00 | 80 | 1004.4 | |
| 20260502191839 | 51 | 0.0 | 0.0 | 0.00 | 0.00 | 0.00 | 80 | 1004.4 | |
| 20260502191342 | 51 | 0.0 | 0.0 | 0.00 | 0.00 | 0.00 | 80 | 1004.5 | |
| 20260502190842 | 51 | 0.0 | 0.0 | 0.00 | 0.00 | 0.00 | 80 | 1004.4 | |
| 20260502190339 | 51 | 0.0 | 0.0 | 0.00 | 0.00 | 0.00 | 80 | 1004.4 | |
| 20260502185841 | 51 | 0.0 | 0.0 | 0.00 | 0.00 | 0.00 | 79 | 1004.4 | |
| 20260502185341 | 51 | 0.0 | 0.0 | 0.00 | 0.00 | 0.00 | 79 | 1004.5 | |
| 20260502184844 | 52 | 0.0 | 0.0 | 0.00 | 0.00 | 0.00 | 79 | 1004.5 | |
| 20260502184338 | 52 | 0.0 | 0.0 | 0.00 | 0.00 | 0.00 | 79 | 1004.6 | |
| 20260502183839 | 52 | 0.0 | 0.0 | 0.00 | 0.00 | 0.00 | 79 | 1004.5 | |
| 20260502183340 | 52 | 0.0 | 0.0 | 0.00 | 0.00 | 0.00 | 79 | 1004.4 | |
| 20260502182842 | 52 | 0.0 | 0.0 | 0.00 | 0.00 | 0.00 | 79 | 1004.3 | |
| 20260502182343 | 52 | 0.0 | 0.0 | 0.00 | 0.00 | 0.00 | 79 | 1004.2 | |
| 20260502181839 | 52 | 0.0 | 0.0 | 0.00 | 0.00 | 0.00 | 79 | 1004.0 | |
| 20260502181340 | 52 | 0.0 | 0.0 | 0.00 | 0.00 | 0.00 | 78 | 1003.9 | |
| 20260502180840 | 52 | 0.0 | 0.0 | 0.00 | 0.00 | 0.00 | 78 | 1003.7 | |
| 20260502180342 | 52 | 0.0 | 0.0 | 0.00 | 0.00 | 0.00 | 77 | 1003.8 | |
| 20260502170338 | 53 | 0.0 | 0.0 | 0.00 | 0.00 | 0.00 | 72 | 1004.3 | |
| 20260502164342 | 54 | 0.0 | 0.0 | 0.00 | 0.00 | 0.00 | 70 | 1004.5 | |
| 20260502163847 | 54 | 0.0 | 0.0 | 0.00 | 0.00 | 0.00 | 70 | 1004.4 | |
| 20260502163342 | 55 | 0.0 | 0.0 | 0.00 | 0.00 | 0.00 | 69 | 1004.3 | |
| 20260502162840 | 55 | 0.0 | 0.0 | 0.00 | 0.00 | 0.00 | 69 | 1004.5 | |
| 20260502162342 | 55 | 0.0 | 0.0 | 0.00 | 0.00 | 0.00 | 68 | 1004.5 | |
| 20260502161840 | 55 | 0.0 | 0.0 | 0.00 | 0.00 | 0.00 | 68 | 1004.5 | |
| 20260502161339 | 55 | 0.0 | 0.0 | 0.00 | 0.00 | 0.00 | 68 | 1004.4 | |
| 20260502160843 | 55 | 0.0 | 0.0 | 0.00 | 0.00 | 0.00 | 67 | 1004.7 | |
| 20260502160340 | 55 | 0.0 | 0.0 | 0.00 | 0.00 | 0.00 | 67 | 1004.8 | |
| 20260502151840 | 56 | 0.0 | 0.0 | 0.00 | 0.00 | 0.00 | 67 | 1004.9 | |
| 20260502151340 | 56 | 0.0 | 0.0 | 0.00 | 0.00 | 0.00 | 67 | 1004.8 | |
| 20260502150840 | 56 | 0.0 | 0.0 | 0.00 | 0.00 | 0.00 | 67 | 1004.8 | |
| 20260502150340 | 56 | 0.0 | 0.0 | 0.00 | 0.00 | 0.00 | 66 | 1004.6 | |
| 20260502130347 | 61 | 0.0 | 0.0 | 0.00 | 0.00 | 0.00 | 60 | 1005.9 | |
| 20260502123340 | 62 | 0.0 | 0.0 | 0.00 | 0.00 | 0.00 | 58 | 1006.0 | |
| 20260502122510 | 63 | 0.0 | 0.0 | 0.00 | 0.00 | 0.00 | 57 | 1006.1 | |
| 20260502121839 | 64 | 0.0 | 0.0 | 0.00 | 0.00 | 0.00 | 57 | 1006.2 | |
| 20260502121344 | 64 | 0.0 | 0.0 | 0.00 | 0.00 | 0.00 | 58 | 1006.3 | |
| 20260502120839 | 65 | 0.0 | 0.0 | 0.00 | 0.00 | 0.00 | 58 | 1006.1 | |
| 20260502120341 | 64 | 0.0 | 0.0 | 0.00 | 0.00 | 0.00 | 57 | 1006.2 | |
| 20260502115844 | 64 | 0.0 | 0.0 | 0.00 | 0.00 | 0.00 | 56 | 1006.3 | |
| 20260502115346 | 64 | 0.0 | 0.0 | 0.00 | 0.00 | 0.00 | 56 | 1006.3 | |
| 20260502114839 | 64 | 0.0 | 0.0 | 0.00 | 0.00 | 0.00 | 56 | 1006.4 | |
| 20260502114340 | 65 | 0.0 | 0.0 | 0.00 | 0.00 | 0.00 | 56 | 1006.4 | |
| 20260502113841 | 65 | 0.0 | 0.0 | 0.00 | 0.00 | 0.00 | 56 | 1006.4 | |
| 20260502113345 | 65 | 0.0 | 0.0 | 0.00 | 0.00 | 0.00 | 56 | 1006.5 | |
| 20260502112512 | 65 | 0.0 | 0.0 | 0.00 | 0.00 | 0.00 | 56 | 1006.5 | |
| 20260502111841 | 65 | 0.0 | 0.0 | 0.00 | 0.00 | 0.00 | 57 | 1006.5 | |
| 20260502111339 | 65 | 0.0 | 0.0 | 0.00 | 0.00 | 0.00 | 57 | 1006.7 | |
| 20260502110841 | 65 | 0.0 | 0.0 | 0.00 | 0.00 | 0.00 | 57 | 1006.7 | |
| 20260502110340 | 65 | 0.0 | 0.0 | 0.00 | 0.00 | 0.00 | 57 | 1006.7 | |
| 20260502105842 | 65 | 0.0 | 0.0 | 0.00 | 0.00 | 0.00 | 57 | 1006.7 | |
| 20260502105345 | 65 | 0.0 | 0.0 | 0.00 | 0.00 | 0.00 | 56 | 1006.8 | |
| 20260502104840 | 64 | 0.0 | 0.0 | 0.00 | 0.00 | 0.00 | 56 | 1006.9 | |
| 20260502104340 | 64 | 0.0 | 0.0 | 0.00 | 0.00 | 0.00 | 55 | 1006.9 | |
| 20260502103844 | 64 | 0.0 | 0.0 | 0.00 | 0.00 | 0.00 | 55 | 1006.9 | |
| 20260502103341 | 64 | 0.0 | 0.0 | 0.00 | 0.00 | 0.00 | 54 | 1006.9 | |
| 20260502102840 | 65 | 0.0 | 0.0 | 0.00 | 0.00 | 0.00 | 55 | 1007.0 | |
| 20260502102339 | 65 | 0.0 | 0.0 | 0.00 | 0.00 | 0.00 | 55 | 1007.0 | |
| 20260502101841 | 64 | 0.0 | 0.0 | 0.00 | 0.00 | 0.00 | 54 | 1007.0 | |
| 20260502101341 | 64 | 0.0 | 0.0 | 0.00 | 0.00 | 0.00 | 54 | 1007.1 | |
| 20260502100841 | 64 | 0.0 | 0.0 | 0.00 | 0.00 | 0.00 | 54 | 1006.9 | |
| 20260502100342 | 64 | 0.0 | 0.0 | 0.00 | 0.00 | 0.00 | 55 | 1007.0 | |
| 20260502091339 | 63 | 0.0 | 0.0 | 0.00 | 0.00 | 0.00 | 52 | 1007.4 | |
| 20260502090839 | 62 | 0.0 | 0.0 | 0.00 | 0.00 | 0.00 | 52 | 1007.4 | |
| 20260502090341 | 62 | 0.0 | 0.0 | 0.00 | 0.00 | 0.00 | 52 | 1007.5 | |
| 20260502071342 | 59 | 0.0 | 0.0 | 0.00 | 0.00 | 0.00 | 61 | 1008.6 | |
| 20260502070842 | 58 | 0.0 | 0.0 | 0.00 | 0.00 | 0.00 | 61 | 1008.6 | |
| 20260502070341 | 58 | 0.0 | 0.0 | 0.00 | 0.00 | 0.00 | 63 | 1008.7 | |
| 20260502065840 | 57 | 0.0 | 0.0 | 0.00 | 0.00 | 0.00 | 63 | 1008.8 | |
| 20260502065339 | 56 | 0.0 | 0.0 | 0.00 | 0.00 | 0.00 | 64 | 1008.7 | |
| 20260502064838 | 56 | 0.0 | 0.0 | 0.00 | 0.00 | 0.00 | 66 | 1008.8 | |
| 20260502064341 | 55 | 0.0 | 0.0 | 0.00 | 0.00 | 0.00 | 66 | 1008.7 | |
| 20260502063840 | 54 | 0.0 | 0.0 | 0.00 | 0.00 | 0.00 | 67 | 1008.7 | |
| 20260502063342 | 54 | 0.0 | 0.0 | 0.00 | 0.00 | 0.00 | 68 | 1008.7 | |
| 20260502062840 | 53 | 0.0 | 0.0 | 0.00 | 0.00 | 0.00 | 68 | 1008.7 | |
| 20260502062343 | 53 | 0.0 | 0.0 | 0.00 | 0.00 | 0.00 | 69 | 1008.8 | |
| 20260502061841 | 53 | 0.0 | 0.0 | 0.00 | 0.00 | 0.00 | 70 | 1008.8 | |
| 20260502061340 | 52 | 0.0 | 0.0 | 0.00 | 0.00 | 0.00 | 70 | 1008.9 | |
| 20260502060840 | 52 | 0.0 | 0.0 | 0.00 | 0.00 | 0.00 | 71 | 1008.9 | |
| 20260502060341 | 52 | 0.0 | 0.0 | 0.00 | 0.00 | 0.00 | 72 | 1009.0 | |
| 20260502055845 | 51 | 0.0 | 0.0 | 0.00 | 0.00 | 0.00 | 73 | 1009.0 | |
| 20260502055345 | 51 | 0.0 | 0.0 | 0.00 | 0.00 | 0.00 | 74 | 1009.0 | |
| 20260502054847 | 50 | 0.0 | 0.0 | 0.00 | 0.00 | 0.00 | 75 | 1009.0 | |
| 20260502054342 | 50 | 0.0 | 0.0 | 0.00 | 0.00 | 0.00 | 76 | 1009.1 | |
| 20260502053838 | 50 | 0.0 | 0.0 | 0.00 | 0.00 | 0.00 | 76 | 1009.1 | |
| 20260502053339 | 49 | 0.0 | 0.0 | 0.00 | 0.00 | 0.00 | 77 | 1009.1 | |
| 20260502052842 | 49 | 0.0 | 0.0 | 0.00 | 0.00 | 0.00 | 78 | 1009.2 | |
| 20260502052340 | 49 | 0.0 | 0.0 | 0.00 | 0.00 | 0.00 | 78 | 1009.3 | |
| 20260502051839 | 49 | 0.0 | 0.0 | 0.00 | 0.00 | 0.00 | 79 | 1009.4 | |
| 20260502051343 | 48 | 0.0 | 0.0 | 0.00 | 0.00 | 0.00 | 79 | 1009.4 | |
| 20260502050841 | 48 | 0.0 | 0.0 | 0.00 | 0.00 | 0.00 | 79 | 1009.4 | |
| 20260502050338 | 48 | 0.0 | 0.0 | 0.00 | 0.00 | 0.00 | 79 | 1009.5 | |
| 20260502045841 | 48 | 0.0 | 0.0 | 0.00 | 0.00 | 0.00 | 79 | 1009.6 | |
| 20260502045341 | 48 | 0.0 | 0.0 | 0.00 | 0.00 | 0.00 | 79 | 1009.8 | |
| 20260502044839 | 47 | 0.0 | 0.0 | 0.00 | 0.00 | 0.00 | 78 | 1009.9 | |
| 20260502044339 | 47 | 0.0 | 0.0 | 0.00 | 0.00 | 0.00 | 78 | 1009.8 | |
| 20260502043837 | 47 | 0.0 | 0.0 | 0.00 | 0.00 | 0.00 | 78 | 1009.8 | |
| 20260502043338 | 46 | 0.0 | 0.0 | 0.00 | 0.00 | 0.00 | 78 | 1009.9 | |
| 20260502042841 | 46 | 0.0 | 0.0 | 0.00 | 0.00 | 0.00 | 77 | 1009.7 | |
| 20260502042341 | 45 | 0.0 | 0.0 | 0.00 | 0.00 | 0.00 | 77 | 1009.7 | |
| 20260502041841 | 44 | 0.0 | 0.0 | 0.00 | 0.00 | 0.00 | 77 | 1009.8 | |
| 20260502041336 | 44 | 0.0 | 0.0 | 0.00 | 0.00 | 0.00 | 76 | 1009.9 | |
| 20260502040837 | 44 | 0.0 | 0.0 | 0.00 | 0.00 | 0.00 | 76 | 1009.9 | |
| 20260502040342 | 44 | 0.0 | 0.0 | 0.00 | 0.00 | 0.00 | 76 | 1010.0 | |
| 20260502035841 | 44 | 0.0 | 0.0 | 0.00 | 0.00 | 0.00 | 76 | 1010.0 | |
| 20260502035339 | 44 | 0.0 | 0.0 | 0.00 | 0.00 | 0.00 | 75 | 1009.9 | |
| 20260502034842 | 45 | 0.0 | 0.0 | 0.00 | 0.00 | 0.00 | 75 | 1010.2 | |
| 20260502034345 | 45 | 0.0 | 0.0 | 0.00 | 0.00 | 0.00 | 75 | 1010.1 | |
| 20260502033840 | 45 | 0.0 | 0.0 | 0.00 | 0.00 | 0.00 | 75 | 1010.2 | |
| 20260502033341 | 45 | 0.0 | 0.0 | 0.00 | 0.00 | 0.00 | 75 | 1010.3 | |
| 20260502032839 | 46 | 0.0 | 0.0 | 0.00 | 0.00 | 0.00 | 75 | 1010.4 | |
| 20260502032346 | 46 | 0.0 | 0.0 | 0.00 | 0.00 | 0.00 | 75 | 1010.4 | |
| 20260502031841 | 46 | 0.0 | 0.0 | 0.00 | 0.00 | 0.00 | 75 | 1010.4 | |
| 20260502031348 | 46 | 0.0 | 0.0 | 0.00 | 0.00 | 0.00 | 75 | 1010.3 | |
| 20260502030844 | 46 | 0.0 | 0.0 | 0.00 | 0.00 | 0.00 | 75 | 1010.4 | |
| 20260502030343 | 45 | 0.0 | 0.0 | 0.00 | 0.00 | 0.00 | 74 | 1010.4 | |
| 20260502025842 | 45 | 0.0 | 0.0 | 0.00 | 0.00 | 0.00 | 74 | 1010.6 | |
| 20260502025340 | 46 | 0.0 | 0.0 | 0.00 | 0.00 | 0.00 | 74 | 1010.5 | |
| 20260502024845 | 46 | 0.0 | 0.0 | 0.00 | 0.00 | 0.00 | 73 | 1010.7 | |
| 20260502024342 | 46 | 0.0 | 0.0 | 0.00 | 0.00 | 0.00 | 73 | 1010.7 | |
| 20260502023843 | 47 | 0.0 | 0.0 | 0.00 | 0.00 | 0.00 | 73 | 1010.7 | |
| 20260502023342 | 47 | 0.0 | 0.0 | 0.00 | 0.00 | 0.00 | 73 | 1010.8 | |
| 20260502022841 | 47 | 0.0 | 0.0 | 0.00 | 0.00 | 0.00 | 73 | 1010.8 | |
| 20260502022340 | 47 | 0.0 | 0.0 | 0.00 | 0.00 | 0.00 | 73 | 1010.9 | |
| 20260502021838 | 48 | 0.0 | 0.0 | 0.00 | 0.00 | 0.00 | 73 | 1011.0 | |
| 20260502021345 | 48 | 0.0 | 0.0 | 0.00 | 0.00 | 0.00 | 73 | 1011.1 | |
| 20260502020847 | 48 | 0.0 | 0.0 | 0.00 | 0.00 | 0.00 | 73 | 1011.1 | |
| 20260502020341 | 48 | 0.0 | 0.0 | 0.00 | 0.00 | 0.00 | 74 | 1011.1 | |
| 20260502015838 | 48 | 0.0 | 0.0 | 0.00 | 0.00 | 0.00 | 74 | 1011.2 | |
| 20260502015344 | 47 | 0.0 | 0.0 | 0.00 | 0.00 | 0.00 | 74 | 1011.3 | |
| 20260502014839 | 47 | 0.0 | 0.0 | 0.00 | 0.00 | 0.00 | 74 | 1011.3 | |
| 20260502014340 | 47 | 0.0 | 0.0 | 0.00 | 0.00 | 0.00 | 74 | 1011.4 | |
| 20260502013838 | 48 | 0.0 | 0.0 | 0.00 | 0.00 | 0.00 | 74 | 1011.4 | |
| 20260502013340 | 48 | 0.0 | 0.0 | 0.00 | 0.00 | 0.00 | 74 | 1011.4 | |
| 20260502012845 | 48 | 0.0 | 0.0 | 0.00 | 0.00 | 0.00 | 74 | 1011.5 | |
| 20260502012339 | 48 | 0.0 | 0.0 | 0.00 | 0.00 | 0.00 | 74 | 1011.5 | |
| 20260502011839 | 48 | 0.0 | 0.0 | 0.00 | 0.00 | 0.00 | 74 | 1011.5 | |
| 20260502011345 | 48 | 0.0 | 0.0 | 0.00 | 0.00 | 0.00 | 75 | 1011.5 | |
| 20260502010846 | 48 | 0.0 | 0.0 | 0.00 | 0.00 | 0.00 | 75 | 1011.7 | |
| 20260502010339 | 48 | 0.0 | 0.0 | 0.00 | 0.00 | 0.00 | 75 | 1011.8 | |
| 20260502005841 | 48 | 0.0 | 0.0 | 0.00 | 0.00 | 0.00 | 75 | 1011.9 | |
| 20260502005338 | 48 | 0.0 | 0.0 | 0.00 | 0.00 | 0.00 | 75 | 1011.9 | |
| 20260502004839 | 48 | 0.0 | 0.0 | 0.00 | 0.00 | 0.00 | 75 | 1012.0 | |
| 20260502004345 | 48 | 0.0 | 0.0 | 0.00 | 0.00 | 0.00 | 75 | 1012.0 | |
| 20260502003839 | 48 | 0.0 | 0.0 | 0.00 | 0.00 | 0.00 | 74 | 1012.0 | |
| 20260502003342 | 48 | 0.0 | 0.0 | 0.00 | 0.00 | 0.00 | 74 | 1012.0 | |
| 20260502002840 | 48 | 0.0 | 0.0 | 0.00 | 0.00 | 0.00 | 74 | 1012.0 | |
| 20260502002342 | 48 | 0.0 | 0.0 | 0.00 | 0.00 | 0.00 | 74 | 1012.2 | |
| 20260502001841 | 48 | 0.0 | 0.0 | 0.00 | 0.00 | 0.00 | 74 | 1012.3 | |
| 20260502001339 | 48 | 0.0 | 0.0 | 0.00 | 0.00 | 0.00 | 74 | 1012.2 | |
| 20260502000840 | 49 | 0.0 | 0.0 | 0.00 | 0.00 | 0.00 | 74 | 1012.2 | |
| 20260502000340 | 49 | 0.0 | 0.0 | 0.00 | 0.00 | 0.00 | 74 | 1012.3 | |
| 20260501235839 | 49 | 0.0 | 0.0 | 0.00 | 0.00 | 0.00 | 74 | 1012.2 | |
| 20260501235342 | 49 | 0.0 | 0.0 | 0.00 | 0.00 | 0.00 | 74 | 1012.4 | |
| 20260501234839 | 49 | 0.0 | 0.0 | 0.00 | 0.00 | 0.00 | 74 | 1012.3 | |
| 20260501234339 | 49 | 0.0 | 0.0 | 0.00 | 0.00 | 0.00 | 74 | 1012.3 | |
| 20260501233838 | 49 | 0.0 | 0.0 | 0.00 | 0.00 | 0.00 | 74 | 1012.3 | |
| 20260501233341 | 49 | 0.0 | 0.0 | 0.00 | 0.00 | 0.00 | 74 | 1012.3 | |
| 20260501232841 | 49 | 0.0 | 0.0 | 0.00 | 0.00 | 0.00 | 73 | 1012.3 | |
| 20260501232339 | 49 | 0.0 | 0.0 | 0.00 | 0.00 | 0.00 | 73 | 1012.6 | |
| 20260501231839 | 49 | 0.0 | 0.0 | 0.00 | 0.00 | 0.00 | 73 | 1012.6 | |
| 20260501231339 | 49 | 0.0 | 0.0 | 0.00 | 0.00 | 0.00 | 73 | 1012.5 | |
| 20260501230844 | 49 | 0.0 | 0.0 | 0.00 | 0.00 | 0.00 | 73 | 1012.6 | |
| 20260501230341 | 49 | 0.0 | 0.0 | 0.00 | 0.00 | 0.00 | 73 | 1012.7 | |
| 20260501225841 | 49 | 0.0 | 0.0 | 0.00 | 0.00 | 0.00 | 73 | 1012.8 | |
| 20260501225340 | 49 | 0.0 | 0.0 | 0.00 | 0.00 | 0.00 | 73 | 1012.7 | |
| 20260501224841 | 50 | 0.0 | 0.0 | 0.00 | 0.00 | 0.00 | 72 | 1012.8 | |
| 20260501224339 | 49 | 0.0 | 0.0 | 0.00 | 0.00 | 0.00 | 72 | 1012.8 | |
| 20260501223839 | 50 | 0.0 | 0.0 | 0.00 | 0.00 | 0.00 | 72 | 1012.9 | |
| 20260501223341 | 50 | 0.0 | 0.0 | 0.00 | 0.00 | 0.00 | 71 | 1013.0 | |
| 20260501222843 | 50 | 0.0 | 0.0 | 0.00 | 0.00 | 0.00 | 71 | 1013.0 | |
| 20260501222341 | 50 | 0.0 | 0.0 | 0.00 | 0.00 | 0.00 | 71 | 1012.9 | |
| 20260501221838 | 50 | 0.0 | 0.0 | 0.00 | 0.00 | 0.00 | 71 | 1012.9 | |
| 20260501221340 | 50 | 0.0 | 0.0 | 0.00 | 0.00 | 0.00 | 70 | 1013.0 | |
| 20260501220842 | 50 | 0.0 | 0.0 | 0.00 | 0.00 | 0.00 | 70 | 1013.0 | |
| 20260501220338 | 50 | 0.0 | 0.0 | 0.00 | 0.00 | 0.00 | 69 | 1013.0 | |
| 20260501215340 | 50 | 0.0 | 0.0 | 0.00 | 0.00 | 0.00 | 69 | 1013.1 | |
| 20260501214840 | 50 | 0.0 | 0.0 | 0.00 | 0.00 | 0.00 | 69 | 1013.1 | |
| 20260501214338 | 51 | 0.0 | 0.0 | 0.00 | 0.00 | 0.00 | 68 | 1013.1 | |
| 20260501213840 | 51 | 0.0 | 0.0 | 0.00 | 0.00 | 0.00 | 68 | 1013.1 | |
| 20260501213340 | 51 | 0.0 | 0.0 | 0.00 | 0.00 | 0.00 | 68 | 1013.2 | |
| 20260501212838 | 51 | 0.0 | 0.0 | 0.00 | 0.00 | 0.00 | 67 | 1013.3 | |
| 20260501212340 | 51 | 0.0 | 0.0 | 0.00 | 0.00 | 0.00 | 67 | 1013.4 | |
| 20260501211844 | 51 | 0.0 | 0.0 | 0.00 | 0.00 | 0.00 | 66 | 1013.4 | |
| 20260501211342 | 51 | 0.0 | 0.0 | 0.00 | 0.00 | 0.00 | 66 | 1013.4 | |
| 20260501210841 | 51 | 0.0 | 0.0 | 0.00 | 0.00 | 0.00 | 66 | 1013.4 | |
| 20260501210338 | 52 | 0.0 | 0.0 | 0.00 | 0.00 | 0.00 | 65 | 1013.4 | |
| 20260501205839 | 52 | 0.0 | 0.0 | 0.00 | 0.00 | 0.00 | 65 | 1013.5 | |
| 20260501205340 | 52 | 0.0 | 0.0 | 0.00 | 0.00 | 0.00 | 64 | 1013.5 | |
| 20260501204843 | 52 | 0.0 | 0.0 | 0.00 | 0.00 | 0.00 | 64 | 1013.6 | |
| 20260501204345 | 52 | 0.0 | 0.0 | 0.00 | 0.00 | 0.00 | 63 | 1013.6 | |
| 20260501203841 | 52 | 0.0 | 0.0 | 0.00 | 0.00 | 0.00 | 63 | 1013.7 | |
| 20260501203339 | 53 | 0.0 | 0.0 | 0.00 | 0.00 | 0.00 | 63 | 1013.7 | |
| 20260501202839 | 53 | 0.0 | 0.0 | 0.00 | 0.00 | 0.00 | 62 | 1013.7 | |
| 20260501202340 | 53 | 0.0 | 0.0 | 0.00 | 0.00 | 0.00 | 62 | 1013.7 | |
| 20260501201839 | 53 | 0.0 | 0.0 | 0.00 | 0.00 | 0.00 | 61 | 1013.8 | |
| 20260501201340 | 53 | 0.0 | 0.0 | 0.00 | 0.00 | 0.00 | 61 | 1013.7 | |
| 20260501200842 | 53 | 0.0 | 0.0 | 0.00 | 0.00 | 0.00 | 61 | 1013.8 | |
| 20260501200340 | 53 | 0.0 | 0.0 | 0.00 | 0.00 | 0.00 | 61 | 1013.8 |